TimePDT,TemperatureF,Dew PointF,Humidity,Sea Level PressureIn,VisibilityMPH,Wind Direction,Wind SpeedMPH,Gust SpeedMPH,PrecipitationIn,Events,Conditions,WindDirDegrees,DateUTC
12:53 AM,32.0,19.0,59,30.22,10.0,SSW,3.5,-,N/A,,Clear,200,2012-05-07 07:53:00
1:53 AM,30.0,19.0,64,30.22,10.0,Calm,Calm,-,N/A,,Clear,0,2012-05-07 08:53:00
2:53 AM,28.9,19.0,67,30.23,10.0,South,4.6,-,N/A,,Clear,190,2012-05-07 09:53:00
3:53 AM,28.0,19.0,69,30.22,10.0,Calm,Calm,-,N/A,,Clear,0,2012-05-07 10:53:00
4:53 AM,28.0,18.0,66,30.21,10.0,Variable,4.6,-,N/A,,Clear,0,2012-05-07 11:53:00
5:53 AM,27.0,18.0,69,30.23,10.0,Calm,Calm,-,N/A,,Clear,0,2012-05-07 12:53:00
6:53 AM,28.0,19.0,69,30.25,10.0,SSW,3.5,-,N/A,,Clear,200,2012-05-07 13:53:00
7:53 AM,36.0,21.0,55,30.23,10.0,Calm,Calm,-,N/A,,Clear,0,2012-05-07 14:53:00
8:53 AM,46.9,19.0,33,30.21,10.0,SSE,3.5,-,N/A,,Clear,160,2012-05-07 15:53:00
9:53 AM,53.1,12.0,20,30.19,10.0,NE,12.7,19.6,N/A,,Clear,40,2012-05-07 16:53:00
10:53 AM,55.0,10.0,17,30.19,10.0,East,11.5,19.6,N/A,,Clear,90,2012-05-07 17:53:00
11:53 AM,57.9,3.0,11,30.18,10.0,Variable,6.9,18.4,N/A,,Clear,0,2012-05-07 18:53:00
12:53 PM,59.0,3.9,11,30.17,10.0,East,8.1,18.4,N/A,,Clear,80,2012-05-07 19:53:00
1:53 PM,62.1,8.1,12,30.16,10.0,NE,11.5,20.7,N/A,,Clear,50,2012-05-07 20:53:00
2:53 PM,63.0,5.0,10,30.14,10.0,NE,8.1,17.3,N/A,,Clear,40,2012-05-07 21:53:00
3:53 PM,62.1,12.0,14,30.14,10.0,North,5.8,16.1,N/A,,Clear,360,2012-05-07 22:53:00
4:53 PM,63.0,10.0,13,30.13,10.0,Variable,3.5,-,N/A,,Clear,0,2012-05-07 23:53:00
5:53 PM,60.1,7.0,12,30.14,10.0,NNE,8.1,-,N/A,,Clear,30,2012-05-08 00:53:00
6:53 PM,55.9,8.1,15,30.15,10.0,North,6.9,-,N/A,,Clear,10,2012-05-08 01:53:00
7:53 PM,50.0,18.0,28,30.15,10.0,Calm,Calm,-,N/A,,Clear,0,2012-05-08 02:53:00
8:53 PM,44.1,18.0,35,30.15,10.0,Calm,Calm,-,N/A,,Clear,0,2012-05-08 03:53:00
9:53 PM,43.0,12.9,30,30.16,10.0,Calm,Calm,-,N/A,,Clear,0,2012-05-08 04:53:00
10:53 PM,39.0,19.0,45,30.17,10.0,Calm,Calm,-,N/A,,Clear,0,2012-05-08 05:53:00
11:53 PM,37.0,17.1,44,30.17,10.0,Variable,5.8,-,N/A,,Clear,0,2012-05-08 06:53:00